Simultaneous Nadir Overpasses (SNOs) Predictions

Prediction of SNOs between LANDSAT-8 and METOP-A Satellite Orbit:

Table of predicted SNOs for the next 14.0 days since TLE Epoch: 2/15/2020
Index Date (LANDSAT-8) Time (LANDSAT-8) Lat,Lon (LANDSAT-8) SZA (LANDSAT-8 ) Date (METOP-A) Time (METOP-A) Lat,Lon (METOP-A) SZA (METOP-A ) Distance(km) Time Diff (sec)
1 02/16/2020 11:01:17 81.49, 61.09 96.11 02/16/2020 11:00:29 81.49, 61.01 96.08 1.44 48
2 02/16/2020 11:50:44 -81.49,-131.36 83.92 02/16/2020 11:51:09 -81.48,-131.39 83.92 0.73 25
3 02/19/2020 06:35:32 81.49, 127.39 95.11 02/19/2020 06:34:52 81.48, 127.48 95.11 1.55 40
4 02/19/2020 07:24:59 -81.48, -65.03 84.91 02/19/2020 07:25:32 -81.48, -64.90 84.89 2.16 33
5 02/22/2020 02:09:46 81.48,-166.32 94.10 02/22/2020 02:09:15 81.49,-166.45 94.08 2.33 31
6 02/22/2020 02:59:13 -81.48, 1.28 85.93 02/22/2020 02:59:55 -81.48, 1.17 85.91 1.88 42
7 02/24/2020 21:44:00 81.49, -99.65 93.11 02/24/2020 21:43:37 81.48, -99.60 93.10 1.29 23
8 02/24/2020 22:33:28 -81.47, 67.58 86.96 02/24/2020 22:34:18 -81.48, 67.64 86.93 1.63 50
9 02/27/2020 17:18:15 81.48, -33.40 92.05 02/27/2020 17:18:01 81.48, -33.55 92.03 2.51 14




NCC Satellite Simultaneous Nadir Overpasses (SNOs) Prediction Service
